Regional Weather Roundup
Issued by NWS

Home | Current Version | Previous Version | Text Only | Print | Product List | Glossary On
Versions: 1 2 3 4 5 6 7 8 9 10 11 12 13 14 15 16 17 18 19 20 21 22 23 24 25 26 27
000
ASUS44 KBMX 190310
RWRAL

ALABAMA REGIONAL WEATHER ROUNDUP
NATIONAL WEATHER SERVICE BIRMINGHAM AL
1000 PM CDT FRI AUG 18 2017

NOTE: "FAIR" INDICATES FEW OR NO CLOUDS BELOW 12,000 FEET
WITH NO SIGNIFICANT WEATHER AND/OR OBSTRUCTIONS TO VISIBILITY.

THE REMARK "TC" DENOTES TEMPERATURE IN DEGREES CELSIUS.

ALZ001>011-014-016>018-020-190400-
NORTH ALABAMA

CITY           SKY/WX    TMP DP  RH WIND       PRES   REMARKS
MUSCLE SHOALS  FAIR      73  68  84 CALM      30.02R
HUNTSVILLE     FAIR      73  71  93 CALM      30.01R
DECATUR        FAIR      71  70  96 CALM      30.02R
HALEYVILLE     FAIR      72  71  97 CALM      30.05R
GADSDEN        FAIR      72  71  97 CALM      30.00S
$$

ALZ012-013-022-023-030>036-040>044-190400-
WEST CENTRAL ALABAMA

CITY           SKY/WX    TMP DP  RH WIND       PRES   REMARKS
TUSCALOOSA     FAIR      77  76  96 CALM      29.99R
DEMOPOLIS        N/A     78  77  98 CALM      29.99S
$$

ALZ015-024>026-033>036-041>044-190400-
CENTRAL ALABAMA

CITY           SKY/WX    TMP DP  RH WIND       PRES   REMARKS
BIRMINGHAM     FAIR      77  70  79 CALM      30.03R
MONTGOMERY     FAIR      79  72  79 CALM      29.98S
SHELBY CO ARPT FAIR      77  74  90 CALM      30.00S
MAXWELL AFB    FAIR      76  74  91 CALM      29.97S
GREENVILLE     FAIR      78  73  84 CALM      29.99S
SELMA          FAIR      77  73  88 CALM      29.98S
PRATTVILLE       N/A     74  73  96 W3        29.98S
BESSEMER       FAIR      72  71  97 CALM      30.02R
TALLADEGA      FAIR     N/A N/A N/A MISG      30.00S
PELL CITY      CLEAR     72  72 100 CALM      30.00S
MARION         FAIR      76  76 100 CALM      29.98F
SYLACAUGA      FAIR      74  74 100 CALM      30.01S
$$

ALZ019-021-028-029-037-038-045>048-190400-
EAST CENTRAL ALABAMA

CITY           SKY/WX    TMP DP  RH WIND       PRES   REMARKS
ANNISTON       FAIR      74  71  91 CALM      30.00S
ALEXANDER CITY FAIR      74  71  91 CALM      30.01S
AUBURN         FAIR      78  71  79 N3        30.01S
$$

ALZ051>064-190400-
SOUTHWEST ALABAMA

CITY           SKY/WX    TMP DP  RH WIND       PRES   REMARKS
MOBILE         MOCLDY    77  73  87 CALM      30.01S
BROOKLEY FIELD FAIR      79  76  90 CALM      30.00F
EVERGREEN      FAIR      78  76  93 CALM      29.99S
$$

ALZ049-050-065>069-190400-
SOUTHEAST ALABAMA

CITY           SKY/WX    TMP DP  RH WIND       PRES   REMARKS
DOTHAN         FAIR      83  75  77 W5        30.02R HX  90
OZARK          FAIR      80  75  84 CALM      29.98S
TROY           FAIR      76  76 100 CALM      30.00S
EUFAULA        FAIR      76  74  93 W3        29.97S
$$




USA.gov is the U.S. government's official web portal to all federal, state and local government web resources and services.